www.pogodaiklimat.ru

Погода и климат >> Архив погоды >> Туркменистан >> Байрамалы


АРХИВ ПОГОДЫ в Байрамалы

Время (UTC), дата Ветер
(напр.,м/с)
 
Видим.   Явления Облачность Т
(С)
Тd
(С)
f
(%)
Тe
(С)
Тes
(С)
Комфортность P
(гПа)
Po
(гПа)
Тmin
(С)
Tmax
(С)
R
(мм)
R24
(мм)
S
(см)
03 12.08 СЗ 2 4000 м ясно +23.8 +8.9 39 +25 +28 комфорт 1010.1 982.9 +22.2
06 12.08 СЗ 2 4000 м ясно +32.5 +14.9 35 +35 +50 душно 1010.0 983.7 +22.2
09 12.08 СЗ 2 4000 м ясно +36.4 +12.5 24 +36 +54 опасность
солнечного
удара
1009.4 983.3
12 12.08 СЗ 2 4000 м ясно +35.7 +11.0 22 +35 +41 очень
жарко
1008.4 982.3
15 12.08 СЗ 2 4000 м ясно +31.7 +11.5 29 +32 +32 жарко 1008.8 982.4 +37.5
18 12.08 СЗ 1 4000 м ясно +27.6 +12.1 38 +29 +29 жарко 1010.5 983.7 +37.5
21 12.08 СЗ 2 4000 м 9/0
[Ac As]
+26.2 +11.2 39 +27 +27 жарко 1010.7 983.8
00 13.08 штиль 0 4000 м ясно +24.2 +10.5 42 +25 +25 комфорт 1011.0 983.9
03 13.08 штиль 0 4000 м 8/0
[Ac und]
+22.4 +11.8 51 +25 +27 комфорт 1012.9 985.6 +20.8
06 13.08 Ю 1 4000 м 3/0
[Cs]
+30.5 +13.7 36 +32 +49 жарко 1013.0 986.3 +20.8
09 13.08 СЗ 2 4000 м 3/0
[Ci sp]
+31.6 +10.2 27 +31 +47 жарко 1012.8 986.2
12 13.08 СЗ 2 4000 м ясно +33.4 +11.5 26 +33 +39 жарко 1011.1 984.8
15 13.08 З 1 4000 м ясно +29.1 +11.8 34 +30 +30 жарко 1011.5 984.8 +34.6
18 13.08 З 1 4000 м ясно +24.2 +9.8 40 +25 +25 комфорт 1013.2 986.0 +34.6
21 13.08 штиль 0 4000 м ясно +21.9 +8.8 43 +23 +23 комфорт 1013.8 986.3
00 14.08 СВ 1 4000 м ясно +20.2 +8.1 46 +22 +22 комфорт 1014.0 986.3
03 14.08 штиль 0 4000 м ясно +19.5 +11.5 60 +21 +25 комфорт 1015.2 987.5 +17.2
06 14.08 штиль 0 4000 м ясно +28.5 +9.5 30 +28 +49 жарко 1014.9 988.1 +17.2
09 14.08 З 2 4000 м ясно +32.2 +9.3 24 +31 +48 жарко 1013.8 987.3
12 14.08 СЗ 2 4000 м ясно +32.2 +8.6 23 +31 +37 жарко 1012.2 985.7
15 14.08 З 1 4000 м ясно +27.9 +8.9 30 +28 +28 жарко 1013.0 986.1 +33.1
18 14.08 штиль 0 4000 м ясно +22.4 +6.4 35 +23 +23 комфорт 1014.7 987.3 +33.1
21 14.08 штиль 0 4000 м ясно +19.1 +5.5 41 +19 +19 1015.3 987.5
00 15.08 штиль 0 4000 м ясно +17.8 +5.1 43 +18 +18 1015.6 987.7
03 15.08 штиль 0 4000 м ясно +17.9 +7.0 49 +18 +22 1016.7 988.8 +14.1
06 15.08 штиль 0 4000 м ясно +26.8 +5.5 26 +26 +46 жарко 1016.1 989.0 +14.1
09 15.08 С 1 4000 м ясно +29.9 +6.1 22 +28 +48 жарко 1014.6 987.9
12 15.08 штиль 0 4000 м ясно +30.4 +5.9 21 +29 +36 жарко 1012.6 985.9
15 15.08 штиль 0 4000 м ясно +27.0 +8.2 30 +27 +27 жарко 1012.5 985.6 +32.0
18 15.08 штиль 0 4000 м ясно +20.0 +9.9 52 +21 +21 комфорт 1013.5 985.9 +32.0
21 15.08 штиль 0 4000 м ясно +16.6 +10.2 66 +17 +17 1013.3 985.4
00 16.08 штиль 0 4000 м ясно +14.4 +10.0 75 +14 +14 1013.7 985.5
03 16.08 штиль 0 4000 м ясно +18.6 +8.6 52 +19 +23 1013.8 986.0 +14.4
06 16.08 штиль 0 4000 м ясно +30.2 +8.2 25 +29 +49 жарко 1012.8 986.1 +14.4
09 16.08 СЗ 1 4000 м ясно +32.2 +5.9 19 +30 +50 жарко 1012.6 986.0
12 16.08 СЗ 2 4000 м ясно +32.4 +7.6 21 +31 +36 жарко 1011.0 984.6
15 16.08 штиль 0 4000 м ясно +28.9 +9.7 30 +29 +29 жарко 1011.1 984.4 +33.8
18 16.08 штиль 0 4000 м ясно +24.4 +9.9 40 +25 +25 комфорт 1012.1 985.0 +33.8
21 16.08 С 1 4000 м ясно +22.4 +6.8 36 +23 +23 комфорт 1012.1 985.0
00 17.08 штиль 0 4000 м ясно +20.0 +8.5 47 +21 +21 комфорт 1012.4 984.8
03 17.08 штиль 0 4000 м ясно +21.6 +7.3 40 +23 +26 комфорт 1012.6 985.2 +18.8
06 17.08 СВ 2 4000 м ясно +28.8 +6.7 25 +28 +43 жарко 1011.9 985.2 +18.8
09 17.08 С 2 4000 м ясно +33.0 +8.6 22 +32 +48 жарко 1010.2 983.8
12 17.08 С 2 4000 м ясно +33.2 +9.7 24 +32 +38 жарко 1009.0 982.7
15 17.08 штиль 0 4000 м ясно +29.5 +9.3 28 +29 +29 жарко 1009.5 982.8 +34.2
18 17.08 штиль 0 4000 м ясно +24.2 +9.8 40 +25 +25 комфорт 1010.3 983.2 +34.2
21 17.08 штиль 0 4000 м ясно +21.5 +10.4 49 +23 +23 комфорт 1010.4 983.0
00 18.08 штиль 0 4000 м ясно +21.2 +8.8 45 +22 +22 комфорт 1011.0 983.5
03 18.08 штиль 0 4000 м ясно +22.8 +8.5 40 +24 +28 комфорт 1011.9 984.6 +19.2
06 18.08 СВ 1 4000 м ясно +31.1 +9.3 26 +30 +48 жарко 1012.5 985.9 +19.2
09 18.08 СЗ 2 4000 м ясно +33.5 +6.2 18 +31 +48 жарко 1012.0 985.6
12 18.08 СВ 2 4000 м ясно +34.5 +4.6 15 +32 +37 жарко 1011.1 984.9
15 18.08 штиль 0 4000 м ясно +30.0 +9.0 27 +29 +29 жарко 1011.7 985.0 +34.8
18 18.08 В 1 4000 м ясно +26.4 +7.1 29 +26 +26 жарко 1013.1 986.1 +34.8
21 18.08 штиль 0 4000 м ясно +23.5 +7.3 35 +24 +24 комфорт 1013.0 985.7

 

Местоположение метеостанции Байрамалы (Ахалский велаят, Туркменистан): широта 37.60 долгота 62.18 высота над уровнем моря 240 м.

В архиве по умолчанию представлена погода в Байрамалы за последнюю неделю. Архивные данные за месяц целиком и за предыдущие месяцы, начиная с января 2011 года, Вы можете получить, выбрав интересующий диапазон дат из раскрывающегося списка и нажав кнопку "Ввод!".


*Определитесь, кто Вы:
робот инопланетянин человек

Внимание! Время в таблицах - всемирное. Для получения местного времени необходимо прибавить поправку, которая равна 5 ч.

Смотрите также архив погоды в соседних городах и на ближайших метеорологических станциях:

Погода в Елетене (Марыйский велаят, Туркменистан) (40 км)
Погода в Багтыярлыке (Марыйский велаят, Туркменистан) (76 км)
Погода в Сарагте (Ахалский велаят, Туркменистан) (146 км)
Погода в Теджене (Ахалский велаят, Туркменистан) (149 км)
Погода в Серахсе (Иран) (149 км)
Погода в Тагтабазаре (Марыйский велаят, Туркменистан) (195 км)
Погода в Туркменабаде (Лебапский велаят, Туркменистан) (206 км)
Погода в Бурдалыке (Лебапский велаят, Туркменистан) (215 км)
Погода в Каке (Ахалский велаят, Туркменистан) (227 км)
Погода в Каракуле (Бухарская область, Узбекистан) (256 км)

Пояснения к столбцам:

Ветер - указаны скорость ветра в м/с - средняя за 10 мин, порывы в срок и между сроками (в фигурных скобках) и направление, откуда дует ветер: С - северный, СВ - северо-восточный, В - восточный, ЮВ - юго-восточный, Ю - южный, ЮЗ - юго-западный, З - западный, СЗ - северо-западный.
Видимость - горизонтальная дальность видимости в метрах или километрах. При видимости от 1 до 10 км при отсутствии осадков обычно наблюдается дымка, при ухудшении видимости до 1 км и менее - туман. В сухую погоду видимость может ухудшаться дымом, пылью или мглою.
Явления - указаны атмосферные явления, наблюдавшиеся в срок или в последний час перед сроком; фигурными скобками обозначены явления, наблюдавшиеся между сроками (за 1-3 часа до срока); квадратными скобками обозначены град или гололедные отложения с указанием их диаметра в мм.
Облачность - указаны через наклонную черту общая и нижняя облачность в баллах и высота нижней границы облаков в метрах; квадратными скобками обозначены формы облаков: Ci - перистые, Cs - перисто-слоистые, Cc - перисто-кучевые, Ac - высококучевые, As - высокослоистые, Sc - слоисто-кучевые, Ns - слоисто-дождевые, Cu - кучевые, Cb - кучево-дождевые. Подробнее классификацию облаков см. в Атласе облаков (PDF).
T - Температура воздуха - температура, измеренная на высоте 2 м над землей.
Td - Температура точки росы - температура, при понижении до которой содержащийся в воздухе водяной пар достигнет насыщения.
f - Относительная влажность воздуха - влажноcть воздуха, измеренная на высоте 2 м над землей.
Te - Эффективная температура - температура, которую ощущает одетый по сезону человек в тени. Характеристика душности погоды. При расчете учитывается влияние влажности воздуха и скорости ветра на теплоощущения человека.
Tes - Эффективная температура на солнце - температура, которую ощущает человек, с поправкой на солнечный нагрев. Характеристика знойности погоды. Зависит от высоты солнца над горизонтом, облачности и скорости ветра. Ночью, в пасмурную погоду, а также при ветре 12 м/с и более поправка равна нулю.
P - Атмосферное давление - приведенное к уровню моря атмосферное давление.
Po - Атмосферное давление - измеренное на уровне метеостанции атмосферное давление.
Tmin - Минимальная температура - минимум температуры воздуха на высоте 2 м над землей.
Tmax - Максимальная температура - максимум температуры воздуха на высоте 2 м над землей.
R - Количество осадков - Количество выпавших осадков за период времени, мм. При наведении курсора мыши на число - период времени, за который выпало указанное количество осадков.
R24 - Количество осадков - Количество выпавших осадков за 24 часа, мм.
S - Снежный покров - Высота снежного покрова, см. При наведении курсора мыши на число - состояние снежного покрова и степень покрытия местности в баллах.